Overview Statistics Trail Chart Weather Telemetry Raw packets
 

This is the latest recevied weather packets stored in our database for station/object KA6UPU-1. If no packets are shown the sender has not sent any weather packets the latest 10 day(s).

<< 80 81 82 83 84 85 86 >>
Time Temp. Humidity Pressure Rain* Wind** Luminosity Snow
1787957780 27.22° C 39% 1013.9 hPa 0 mm - - -
1787957480 26.67° C 43% 1013.9 hPa 0 mm - - -
1787957180 26.67° C 45% 1014 hPa 0 mm - - -
1787956880 26.67° C 46% 1014.2 hPa 0 mm - - -
1787956586 26.67° C 47% 1014.1 hPa 0 mm - - -
1787956280 26.11° C 48% 1014.2 hPa 0 mm - - -
1787955679 25.56° C 51% 1014.3 hPa 0 mm - - -
1787955144 25° C 53% 1014.7 hPa 0 mm - - -
1787955080 25° C 53% 1014.7 hPa 0 mm - - -
1787954779 24.44° C 55% 1014.8 hPa 0 mm - - -
1787954480 23.89° C 56% 1014.9 hPa 0 mm - - -
1787954180 23.89° C 55% 1014.9 hPa 0 mm - - -
1787953880 23.33° C 55% 1015 hPa 0 mm - - -
1787953580 23.33° C 57% 1015 hPa 0 mm - - -
1787953280 22.78° C 56% 1015 hPa 0 mm - - -
1787952680 22.78° C 57% 1015.1 hPa 0 mm - - -
1787952380 22.78° C 57% 1015.1 hPa 0 mm - - -
1787952080 22.78° C 58% 1015 hPa 0 mm - - -
1787951480 22.78° C 59% 1015.1 hPa 0 mm - - -
1787951180 22.22° C 59% 1015.2 hPa 0 mm - - -
1787950880 22.22° C 59% 1015.2 hPa 0 mm - - -
1787949980 22.78° C 59% 1015.4 hPa 0 mm - - -
1787949680 22.78° C 59% 1015.4 hPa 0 mm - - -
1787949080 22.78° C 59% 1015.5 hPa 0 mm - - -
1787948780 22.78° C 59% 1015.5 hPa 0 mm - - -

* Rain latest hour (hover to see other rain measurements)
** Current wind speed in m/s (hover to see current wind gust speed)